Airfield :
LOGIN :

Register | Disclaimer

   EN    FR    IT 

 










Legend :    VFR   Marginal VFR   IFR   Intensive IFR   Very Intensive IFR
Visi :
Ceiling :
>= 8 km
>= 3000ft
5 to 8 km
1000 to 3000 ft
1500m to 5 km
500 to 1000 ft
800 to 1500m
200 to 500 ft
< 800m
< 200 ft
Symbols :   Thunderstorms  Fog  Heavy snow  Heavy precipitations  Wind > 20 kt
SIGMETs :     Misc.  Thunderstorms  Icing  Turbulence  Mountain Waves  Volcanic Ashes







- Airport Elevation : 939 ft


LKKB - Kbely Air Base

CURRENT METAR :
  • 132300Z 06004KT 6000 FEW011 BKN014 M04/M06 Q1021

EXPIRED METARs :
  • 132200Z 06004KT 7000 FEW011 BKN014 M06/M07 Q1021
  • 132100Z 09004KT 7000 SCT014 M05/M06 Q1021

TAF TAF LKKB
Valid from the 13 at 18:00 until the 14 at 18:00 UTC


131700Z 1318/1418 06003KT 8000 NSC
TEMPO 1317/1402 VRB02KT 6000 SCT030
BECMG 1403/1405 4000 BR NSC
BECMG 1406/1408 8000 NSC
TEMPO 1412/1418 08005KT BKN035
No reported NOTAMs for that airfield.



MET'MAP, your aeronautical weather chart ! - Copyright ORBIFLY December 2007 - Disclaimer

ORBIFLY MET'MAP TEAM :

Programming & Development : Alexandra Zaïnal
Concept & Development : Baudouin d'Aumeries
Co-Development & Prog : Marc-Olivier Méhu
Technical & hardware support : Manuel Goepfert

Contact : metmap@orbifly.com




SOURCES & CREDITS :

   NOAA